Location: Bennemühlen
(52.5740°N, 9.7135°E)
Time: 02:19:52
(UTC+00:00)

A-11 Canister half - Pass Details

Date: 21 February 2026
Orbit: 1513 x 1687 km, 47.2° (Epoch: 13 March)

Event Time Altitude Azimuth Distance (km) Brightness Sun altitude
Rises 19:18:10 0° 220° (SW) 4,932 12.0 -23.8°
Reaches altitude 10° 19:21:33 10° 214° (SW) 3,946 11.3 -24.3°
Maximum altitude 19:30:48 42° 148° (SSE) 2,245 9.5 -25.6°
Enters shadow 19:32:15 40° 129° (SE) 2,299 9.4 -25.8°
Drops below altitude 10° 19:39:54 10° 83° (E) 3,889 - -26.9°
Sets 19:43:12 0° 77° (ENE) 4,856 - -27.4°
